Content
SEND FEEDBACK

Daily
Averages
Monthly
Summary
United States of America

VALLEY PARK, MISSOURI


Home > North America > United States > Missouri
Elevation: 456 feet     Latitude: 38 33N     Longitude: 090 30W

WEATHER
 
SELECT A DAY
Number of Records: 203,542;   Date Range: 1/1/95 - 8/30/14
 
SHARE

PRINT THIS DATA

[ ← Previous Day ]
WEATHER ALMANAC - APRIL 8, 2013
[ Next Day → ]
[ °C ]   °F
Weather ElementAverageHighLow
Temperature70.4 °F79 °F (2:51 pm)63 °F (4:51 am)
Dewpoint54.7 °F57.9 °F (1:51 pm)52 °F (4:51 am)
Humidity58.2 %75 % (12:51 am)45 % (5:51 pm)
Barometer29.78 in29.88 in (11:51 pm)29.71 in (5:51 am)
Wind Speed11.9 mph17.3 mph (1:51 am)
Wind Gust28.8 mph (12:51 am)
Weather ElementAverage
Visibility10 mi
Wind DirectionSSE (171.7 °)

Weather ElementTotal
Precipitation---
Cooling Degree Days6 (Base 65)
Growing Degree Days21 (Base 50)
Averaged from 23 records on April 8, 2013
WEATHER CONDITIONS BREAKOUT
WIND DIRECTION BREAKOUT
WEATHER BY HOUR - APRIL 8, 2013
[ °C ]   °F
Local TimeTemperatureDewpointHumidityBarometerVisibilityWind DirectionWind SpeedGust SpeedPrecipitationEventsConditions
12:51 AM64.0 °F55.9 °F75 %29.78 in10.0 miSSW (210°)15.0 mph28.8 mph0.00 inOvercast
1:51 AM64.0 °F55.0 °F73 %29.76 in10.0 miSouth (190°)17.3 mph27.6 mphMostly Cloudy
2:51 AM64.0 °F53.1 °F67 %29.73 in10.0 miSouth (180°)16.1 mph24.2 mphMostly Cloudy
3:51 AM64.0 °F53.1 °F67 %29.73 in10.0 miSSW (200°)12.7 mph20.7 mphScattered Clouds
4:51 AM63.0 °F52.0 °F67 %29.73 in10.0 miSouth (190°)15.0 mphScattered Clouds
5:51 AM63.0 °F52.0 °F67 %29.71 in10.0 miSouth (190°)12.7 mph20.7 mphMostly Cloudy
6:51 AM63.0 °F52.0 °F67 %29.74 in10.0 miSSW (200°)11.5 mphMostly Cloudy
7:51 AM64.9 °F53.1 °F65 %29.75 in10.0 miSSW (210°)10.4 mphMostly Cloudy
8:51 AM66.0 °F53.1 °F63 %29.78 in10.0 miSSW (210°)10.4 mphOvercast
9:51 AM69.1 °F54.0 °F58 %29.79 in10.0 miSSW (210°)11.5 mphMostly Cloudy
10:51 AM72.0 °F55.0 °F55 %29.81 in10.0 miSW (230°)12.7 mphMostly Cloudy
11:51 AM75.9 °F57.0 °F52 %29.79 in10.0 miWSW (240°)6.9 mphScattered Clouds
12:51 PM75.9 °F57.0 °F52 %29.78 in10.0 miCalmMostly Cloudy
1:51 PM77.0 °F57.9 °F52 %29.77 in10.0 miVariable4.6 mphMostly Cloudy
2:51 PM79.0 °F57.0 °F47 %29.76 in10.0 miSSE (160°)16.1 mph25.3 mphMostly Cloudy
3:51 PM78.1 °F55.9 °F46 %29.75 in10.0 miSouth (170°)13.8 mph23.0 mphMostly Cloudy
5:51 PM77.0 °F54.0 °F45 %29.78 in10.0 miSouth (190°)12.7 mphMostly Cloudy
6:51 PM75.9 °F55.0 °F48 %29.79 in10.0 miSSE (150°)13.8 mphMostly Cloudy
7:51 PM75.0 °F54.0 °F48 %29.80 in10.0 miSouth (170°)11.5 mphMostly Cloudy
8:51 PM73.0 °F55.0 °F53 %29.83 in10.0 miSSE (150°)10.4 mphMostly Cloudy
9:51 PM72.0 °F55.9 °F57 %29.85 in10.0 miSSE (150°)12.7 mphOvercast
10:51 PM71.1 °F55.0 °F57 %29.85 in10.0 miSouth (170°)15.0 mph19.6 mphMostly Cloudy
11:51 PM71.6 °F55.4 °F57 %29.88 in10.0 miSouth (180°)10.4 mphOvercast
Hourly data recorded from KSTL, located miles away from Valley Park, Missouri







STORIES FROM OUR PARTNERS